Regional Weather Roundup
Issued by NWS

Home | Current Version | Previous Version | Graphics & Text | Print | Product List | Glossary On
Versions: 1 2 3 4 5 6 7 8 9 10 11 12 13 14 15 16 17 18 19 20 21 22 23 24 25 26 27 28 29 30 31 32 33 34 35 36 37 38 39 40 41 42 43 44 45 46 47 48 49 50
000
ASUS43 KDTX 182301
RWRMI
MICHIGAN HOURLY REGIONAL WEATHER ROUNDUP
NATIONAL WEATHER SERVICE DETROIT/PONTIAC MI
600 PM EST THU JAN 18 2018

NOTE: "FAIR" INDICATES FEW OR NO CLOUDS BELOW 12,000 FEET WITH NO
SIGNIFICANT WEATHER AND/OR OBSTRUCTION TO VISIBILITY.

MIZ047>049-052>055-059>063-066>070-074>076-081>083-190000-
SOUTHEAST LOWER MICHIGAN

CITY           SKY/WX    TMP DP  RH WIND       PRES   REMARKS
ADRIAN         FAIR      23  15  71 SW16      30.02F WCI  10
ALMA           FAIR      30  21  67 SW13      29.90S WCI  20
ANN ARBOR      FAIR      25  16  68 S15       29.98F WCI  13
BAD AXE        FAIR      27  18  70 SW15G22   29.87F WCI  15
CARO           FAIR      27  18  67 S14G20    29.88F WCI  16
DETROIT CITY   FAIR      26  16  65 SW17      29.98F WCI  13
DETROIT        FAIR      25  16  68 SW17      30.01F WCI  12
FLINT          FAIR      29  15  56 SW10      29.93F WCI  20
GROSSE ILE     FAIR      26  17  68 SW10      30.00F WCI  15
HILLSDALE      FAIR      28  14  54 SW10G16   29.98S WCI  19
HOWELL         FAIR      29  17  60 SW10G20   29.94R WCI  19

CITY           SKY/WX    TMP DP  RH WIND       PRES   REMARKS
JACKSON        FAIR      27  14  58 SW14G25   29.97F WCI  16
LAMBERTVILLE   FAIR      26  15  65 SW13G18   30.03F WCI  14
LANSING        FAIR      29  16  58 S9        29.94S WCI  20
LAPEER         FAIR      30  17  59 SW9       29.92S WCI  22
MASON          FAIR      28  14  54 SW9       29.95S WCI  20
MONROE         FAIR      26  13  59 SW13      30.01F WCI  15
MT. CLEMENS    MOCLDY    29  15  56 SW12      29.94F WCI  19
PONTIAC        FAIR      28  17  63 S8        29.93S WCI  20
PORT HOPE        N/A     28  19  69 S6        29.85S WCI  22
PORT HURON     FAIR      27  18  69 S10G16    29.96S WCI  17
TRI CITIES     FAIR      29  20  69 SW14      29.88F WCI  18
MIDLAND        FAIR      29  22  75 S6        29.88R WCI  23
TROY           FAIR      28  17  65 SW16G22   29.98S WCI  15
SAGINAW HB     FAIR      28  19  69 SW15G21   29.89F WCI  17
$$
MIZ043>046-050>051-056>058-064>065-071>073-077>080-190000-
SOUTHWEST LOWER MICHIGAN

CITY           SKY/WX    TMP DP  RH WIND       PRES   REMARKS
BATTLE CREEK   FAIR      26  15  63 SW14      29.97S WCI  14
BENTON HARBOR  FAIR      30  15  53 S14G21    29.99S WCI  19
BIG RAPIDS     FAIR      28  21  72 SW7G17    29.84F WCI  21
COLDWATER      FAIR      26  15  61 SW15G23   30.00S WCI  14
FREMONT        FAIR      30  20  65 SW16G22   29.88F WCI  19
HOLLAND        FAIR      31  21  66 SW14      29.95R WCI  21
GRAND RAPIDS   FAIR      29  17  61 S8        29.93F WCI  21
IONIA          FAIR      28  17  61 SW12      29.92S WCI  18
KALAMAZOO      FAIR      29  14  53 SW16      29.98S WCI  17
LUDINGTON      FAIR      31  26  81 SW20G29   29.84S WCI  19
MARSHALL       FAIR      25  14  61 SW8       29.98R WCI  17
MOUNT PLEASANT FAIR      31  21  66 SW13G23   29.86S WCI  21
MUSKEGON       FAIR      33  24  69 SW18      29.91F WCI  22
SOUTH HAVEN    FAIR      32  16  52 SW14G22   29.97S WCI  22
$$
MIZ016>042-190000-
NORTHERN LOWER MICHIGAN

CITY           SKY/WX    TMP DP  RH WIND       PRES   REMARKS
ALPENA         FAIR      30  24  78 S8        29.76F WCI  22
BEAVER ISLAND  CLOUDY    32  26  78 W16G23    29.76R WCI  22
BELLAIRE       CLOUDY    33  27  77 SW9G20    29.79R WCI  26
CADILLAC       MOCLDY    28  23  82 SW17      29.77S WCI  15
CHARLEVOIX     CLOUDY    33  27  76 SW20G25   29.80R WCI  22
FRANKFORT      CLOUDY    32  28  85 S15G24    29.82R WCI  22
GAYLORD        CLOUDY    30  25  81 W12       29.74R WCI  20
GRAYLING       FAIR      30  23  73 SW9G17    29.76S WCI  22
HARBOR SPRINGS CLOUDY    32  27  81 W10G18    29.76R WCI  24
HOUGHTON LAKE  FAIR      29  23  78 SW13G20   29.78F WCI  19
MANISTEE       FAIR      30  24  78 SW8G20    29.84R WCI  22
OSCODA         FAIR      28  22  77 S15       29.79F WCI  17
PELLSTON       CLOUDY    33  26  75 W10G17    29.76R WCI  25
ROGERS CITY    FAIR      29  24  79 CALM      29.77R
TRAVERSE CITY  FAIR      33  24  69 SW9G20    29.79R WCI  25
$$
MIZ007>008-015-190000-
EASTERN UPPER MICHIGAN

CITY           SKY/WX    TMP DP  RH WIND       PRES   REMARKS
KINROSS        MIX PCPN  30  26  85 S6        29.74R WCI  24
MACKINAC ISLAN CLOUDY    32  26  80 SW7       29.75R WCI  25
NEWBERRY       CLOUDY    27  23  86 SW10      29.73R WCI  17
S. S. MARIE    CLOUDY    34  27  75 SE5       29.73S WCI  30
MUNISING         N/A     28  22  78 SW8       29.73R WCI  20
$$
MIZ004>006-011>014-085-190000-
CENTRAL UPPER MICHIGAN

CITY           SKY/WX    TMP DP  RH WIND       PRES   REMARKS
MANISTIQUE     CLOUDY    27  22  81 SW5       29.75R WCI  21
ESCANABA       CLOUDY    28  23  81 SW6       29.77R WCI  22
MENOMINEE      FAIR      30  21  69 SW8       29.78R WCI  22
SAWYER-GWINN   CLOUDY    30  23  74 W5        29.71R WCI  25
$$
MIZ001>003-009>011-084-190000-
WESTERN UPPER MICHIGAN

CITY           SKY/WX    TMP DP  RH WIND       PRES   REMARKS
IRON MOUNTAIN  CLOUDY    34  24  67 W3        29.72R
HOUGHTON       CLOUDY    33  26  75 W13       29.69R WCI  24
COPPER HARBOR    N/A     32  28  85 N7        29.69R WCI  26
IRONWOOD       MOCLDY    31  24  75 W6        29.73R WCI  25
$$

ABBREVIATIONS USED IN REMARKS
   TC - TEMPERATURE IN CELSIUS
  WCI - WIND CHILL INDEX
   HX - HEAT INDEX
  VSB - VISIBILITY




USA.gov is the U.S. government's official web portal to all federal, state and local government web resources and services.